User: anonymous   Login
Location: Unspecified
(0.0000°N, 0.0000°E)
Time: 05:17:15
(UTC+02:00)
Language:

Ariane H10 - Orbit

View from above orbital plane
View from above orbital plane
View from above satellite
View from above satellite

Ground track
Ground track

The orbit data is extracted from the following two-line orbital elements,

1 21815U 91084C   16181.31890005 -.00000003  00000-0  00000+0 0  9995
2 21815   3.7570 232.1560 7179493 141.6857 302.5327  2.31663328204150
Epoch (UTC): 29 June 2016 07:39:12
Eccentricity: 0.7179493
inclination: 3.7570°
perigee height: 427 km
apogee height: 35070 km
right ascension of ascending node: 232.1560°
argument of perigee: 141.6857°
revolutions per day: 2.31663328
mean anomaly at epoch: 302.5327°
orbit number at epoch: 20415

The dashed part of the orbit path shows where the satellite is in the earth's shadow,  

DLR